INTELSAT 31 (IS-31)

Last updated on Mon Nov 03 2025 00:02:58 GMT+0000 (Coordinated Universal Time)

1 41581U 16035A 25306.44416264 -.00000141 00000+0 00000+0 0 9996 2 41581 0.0151 247.6422 0002445 338.3094 240.8885 1.00283744 34416
UTC large
Height (km)
Speed (km/s)
/
Latitude / Longitude
Inclination (degrees)
Orbital Period (minutes)
Azimuth
Elevation
Range (km)
Doppler Factor

Next 0 passes for location: London (51.5072 / 0.1276)

Sorry there are no passes over London.